This demonstration page uses our WeatherBlox Daily Observations layout. Learn more.

Left ArrowRight Arrow

Hourly Observations for September 12, 2018

Temp ( °F °C ) Dew Point ( °F °C ) Humidity (%) Winds ( mph kmh ) Pressure ( in mb ) Visibility ( mi km ) Precip ( " mm )
12:53 am 00:53 Clear 64 17.8 60 15.6 87 87 S 8 13 29.95 1014 10 16 0.00 0.00
1:53 am 01:53 Clear 64 17.8 60 15.6 87 87 SSE 7 11 29.95 1014 10 16 0.00 0.00
2:53 am 02:53 Clear 64 17.8 60 15.6 87 87 S 7 11 29.95 1014 10 16 0.00 0.00
3:53 am 03:53 Clear 63 17.2 60 15.6 90 90 S 7 11 29.95 1014 10 16 0.00 0.00
4:53 am 04:53 Clear 62 16.7 59 15 90 90 SSE 8 13 29.95 1014 10 16 0.00 0.00
5:53 am 05:53 Clear 61 16.1 59 15 93 93 SSE 9 15 29.95 1014 10 16 0.00 0.00
6:53 am 06:53 Clear 61 16.1 59 15 93 93 SSE 10 17 29.96 1015 10 16 0.00 0.00
7:53 am 07:53 Sunny 61 16.1 60 15.6 97 97 S 9 15 29.98 1015 10 16 0.00 0.00
8:53 am 08:53 Sunny 64 17.8 61 16.1 90 90 S 10 17 29.98 1015 10 16 0.00 0.00
9:53 am 09:53 Sunny 69 20.6 63 17.2 81 81 S 12 19 29.98 1015 10 16 0.00 0.00
10:53 am 10:53 Sunny 73 22.8 63 17.2 71 71 S 15 24 29.98 1015 10 16 0.00 0.00
11:53 am 11:53 Sunny 76 24.4 63 17.2 64 64 SSE 20 31 29.97 1015 10 16 0.00 0.00
12:53 pm 12:53 Sunny 77 25 63 17.2 62 62 SSE 18 30 29.96 1014 10 16 0.00 0.00
1:53 pm 13:53 Sunny 79 26.1 63 17.2 58 58 SSE 18 30 29.93 1014 10 16 0.00 0.00
2:53 pm 14:53 Sunny 79 26.1 64 17.8 60 60 S 18 30 29.93 1013 10 16 0.00 0.00
3:53 pm 15:53 Sunny 80 26.7 63 17.2 56 56 SSE 20 31 29.91 1013 10 16 0.00 0.00
4:53 pm 16:53 Sunny 80 26.7 62 16.7 54 54 SSE 18 30 29.91 1013 10 16 0.00 0.00
5:53 pm 17:53 Sunny 78 25.6 63 17.2 60 60 S 18 30 29.90 1013 10 16 0.00 0.00
6:53 pm 18:53 Mostly Sunny 77 25 63 17.2 62 62 SSE 16 26 29.91 1013 10 16 0.00 0.00
7:53 pm 19:53 Clear 73 22.8 62 16.7 69 69 SSE 13 20 29.91 1013 10 16 0.00 0.00
8:53 pm 20:53 Clear 71 21.7 63 17.2 76 76 SSE 13 20 29.91 1013 10 16 0.00 0.00
9:53 pm 21:53 Clear 70 21.1 63 17.2 79 79 SSE 15 24 29.92 1013 10 16 0.00 0.00
10:53 pm 22:53 Clear 69 20.6 64 17.8 84 84 SSE 13 20 29.92 1013 10 16 0.00 0.00
11:53 pm 23:53 Clear 68 20 65 18.3 90 90 SSE 14 22 29.92 1013 10 16 0.00 0.00

Powered by AerisWeather